Location: Ambatotampy
(18.8181°S, 47.6186°E)
Time: 00:11:49
(UTC+00:00)

Lacrosse 4 Rocket - Pass Details

Date: 21 January 2021
Orbit: 536 x 621 km, 68.0° (Epoch: 24 February)

Event Time Altitude Azimuth Distance (km) Brightness Sun altitude
Rises 01:39:08 0° 211° (SSW) 2,702 4.8 -11.6°
Reaches altitude 10° 01:41:24 10° 218° (SW) 1,805 3.8 -11.1°
Maximum altitude 01:45:11 40° 288° (WNW) 807 1.7 -10.3°
Drops below altitude 10° 01:48:58 10° 358° (N) 1,806 3.7 -9.5°
Sets 01:51:15 0° 6° (N) 2,702 4.7 -9.0°
